Flag for United Kingdom Weather past 2 weeks in Stafford, England, United Kingdom

Now
59 °F

Partly sunny.


Feels Like: 57 °F
Forecast: 46 / 64 °F
Wind: 9 mph from Southwest

Location: Shawbury

Current Time: May 22, 2015 at 9:30:52 AM

Latest Report: May 22, 2015 at 8:50 AM


Visibility: N/A

Pressure: 30.24 "Hg

Humidity: 77%

Dew point: 52 °F

Location of StaffordLocation

Historic Weather in Stafford — Graph

°F

Stafford temperature yesterday

Maximum temperature yesterday: 61 °F (at 2:50 PM)
Minimum temperature yesterday: 43 °F (at 4:50 AM)
Average temperature yesterday: 53 °F

Past Weeks' High & Low Weather Summary

 TemperatureHumidityPressure
High66 °F (May 11, 12:50 PM)100% (May 7, 10:50 PM)30.33 "Hg (May 7, 10:50 PM)
Low37 °F (May 8, 5:50 AM)41% (May 16, 3:50 PM)29.47 "Hg (May 19, 3:50 AM)
Average51 °F74%30.00 "Hg
* Reported May 7 7:50 AM — May 22 7:50 AM, Stafford, Weather by CustomWeather, © 2015

Note: Actual official high and low records may vary slightly from our data, if they occured in-between our weather recording intervals... More about our weather records

Advertising

Stafford weather history for previous 24 hours

 ConditionsComfort  
Time TempWeatherWind HumidityBarometerVisibility
7:50 AM
Fri, May 22
55 °FPartly sunny.9 mph82%30.24 "HgN/A
6:50 AM54 °FPartly sunny.6 mph88%30.24 "HgN/A
5:50 AM52 °FPassing clouds.6 mph88%30.24 "HgN/A
4:50 AM52 °FOvercast.3 mph88%30.24 "HgN/A
3:50 AM52 °FOvercast.1 mph82%30.27 "HgN/A
2:50 AM52 °FOvercast.5 mph82%30.27 "HgN/A
1:50 AM52 °FPassing clouds.7 mph77%30.27 "HgN/A
12:50 AM52 °FPassing clouds.3 mph77%30.30 "HgN/A
11:50 PM
Thu, May 21
52 °FOvercast.12 mph77%30.30 "HgN/A
10:50 PM52 °FOvercast.13 mph72%30.30 "HgN/A
9:50 PM52 °FOvercast.13 mph72%30.30 "HgN/A
8:50 PM54 °FOvercast.12 mph67%30.30 "HgN/A
7:50 PM55 °FScattered clouds.13 mph67%30.27 "HgN/A
6:50 PM57 °FScattered clouds.14 mph59%30.27 "HgN/A
5:50 PM57 °FCool.14 mph63%30.27 "HgN/A
4:50 PM59 °FScattered clouds.16 mph59%30.27 "HgN/A
3:50 PM61 °FScattered clouds.15 mph55%30.27 "HgN/A
2:50 PM61 °FScattered clouds.14 mph52%30.27 "HgN/A
1:50 PM59 °FLight rain. Scattered clouds.10 mph51%30.27 "HgN/A
12:50 PM59 °FScattered clouds.9 mph51%30.27 "HgN/A
11:50 AM59 °FPartly sunny.10 mph59%30.27 "HgN/A
10:50 AM57 °FPartly sunny.9 mph63%30.27 "HgN/A
9:50 AM55 °FScattered clouds.10 mph63%30.27 "HgN/A
Weather by CustomWeather, © 2015

See weather overviewHow to use our weather pages